This demonstration page uses our WeatherBlox Daily Observations layout. Learn more.

39.29038, -76.61219

Hourly Observations for November 10, 2019

Temp ( °F °C ) Dew Point ( °F °C ) Humidity (%) Winds ( mph kmh ) Pressure ( in mb ) Visibility ( mi km ) Precip ( " mm )
12:54 am 00:54 undefined 38 3.3 26 -3.3 62 62 undefined N/A 30.15 1021 N/A 0 0
1:54 am 01:54 undefined 38 3.3 27 -2.8 65 65 undefined N/A 30.13 1020 N/A 0 0
2:54 am 02:54 undefined 38 3.3 29 -1.7 70 70 undefined N/A 30.11 1020 N/A 0 0
3:54 am 03:54 undefined 38 3.3 29 -1.7 70 70 undefined N/A 30.1 1019 N/A 0 0
4:54 am 04:54 undefined 38 3.3 30 -1.1 73 73 undefined N/A 30.11 1020 N/A 0 0
5:54 am 05:54 undefined 38 3.3 30 -1.1 73 73 undefined N/A 30.1 1019 N/A 0 0
6:54 am 06:54 undefined 38 3.3 30 -1.1 73 73 undefined N/A 30.1 1019 N/A 0 0
7:54 am 07:54 undefined 40 4.4 29 -1.7 65 65 undefined N/A 30.12 1020 N/A 0 0
8:54 am 08:54 undefined 44 6.7 31 -0.6 60 60 undefined N/A 30.12 1020 N/A 0 0
9:54 am 09:54 undefined 47 8.3 31 -0.6 54 54 undefined N/A 30.1 1019 N/A 0 0
10:54 am 10:54 undefined 50 10 32 0 50 50 undefined N/A 30.09 1019 N/A 0 0
11:54 am 11:54 undefined 53 11.7 32 0 45 45 undefined N/A 30.06 1018 N/A 0 0
12:54 pm 12:54 undefined 54 12.2 33 0.6 45 45 undefined N/A 30.04 1017 N/A 0 0
1:54 pm 13:54 undefined 55 12.8 35 1.7 47 47 undefined N/A 30.04 1017 N/A 0 0
2:54 pm 14:54 undefined 55 12.8 36 2.2 49 49 undefined N/A 30.03 1017 N/A 0 0
3:54 pm 15:54 undefined 56 13.3 34 1.1 44 44 undefined N/A 30.03 1017 N/A 0 0
4:54 pm 16:54 undefined 55 12.8 33 0.6 44 44 undefined N/A 30.03 1017 N/A 0 0
5:54 pm 17:54 undefined 52 11.1 33 0.6 49 49 undefined N/A 30.04 1017 N/A 0 0
6:54 pm 18:54 undefined 51 10.6 34 1.1 52 52 undefined N/A 30.05 1018 N/A 0 0
7:54 pm 19:54 undefined 52 11.1 34 1.1 50 50 undefined N/A 30.05 1018 N/A 0 0
8:54 pm 20:54 undefined 50 10 34 1.1 54 54 undefined N/A 30.05 1018 N/A 0 0
9:54 pm 21:54 undefined 50 10 35 1.7 57 57 undefined N/A 30.05 1018 N/A 0 0
10:54 pm 22:54 undefined 47 8.3 38 3.3 71 71 undefined N/A 30.05 1018 N/A 0 0
11:54 pm 23:54 undefined 47 8.3 38 3.3 71 71 undefined N/A 30.05 1018 N/A 0 0

Powered by AerisWeather